Skip Page Navigation
NASA JPL Caltech
NASA Logo - Jet Propulsion Laboratory + View the NASA Portal
+ Center for Near-Earth Object Studies
JPL Home Earth Solar System Stars & Galaxies Technology
JPL Solar System Dynamics
BODIES ORBITS EPHEMERIDES TOOLS PHYSICAL DATA DISCOVERY FAQ SITE MAP
IMPORTANT: The SSD Announcement email list is now available. Major changes are coming in the near future, including possible hostname and/or URL changes. To be notified of such changes, subscribe to this email list.

Please visit this page for more details.


JPL Small-Body Database Browser
Search: [ help ]  
136429 (2005 EU13)
Classification: Main-belt Asteroid          SPK-ID: 2136429
Ephemeris | Orbit Diagram | Orbital Elements | Mission Design | Physical Parameters | Discovery Circumstances ]

[ show orbit diagram ]
Orbital Elements at Epoch 2458600.5 (2019-Apr-27.0) TDB
Reference: JPL 18 (heliocentric ecliptic J2000)
 Element Value Uncertainty (1-sigma)   Units 
e .1456393448408647 4.1229e-08  
a 2.463646700690069 1.6349e-08 au
q 2.10484280928221 1.024e-07 au
i 14.74939191846733 6.1948e-06 deg
node 156.2096951999983 2.4188e-05 deg
peri 138.9854323299258 3.7627e-05 deg
M 123.637003699973 3.0659e-05 deg
tp 2458115.421484778570
(2017-Dec-27.92148478)
0.00011766 TDB
period 1412.427188089103
3.87
1.406e-05
3.849e-08
d
yr
n .2548803952769065 2.5372e-09 deg/d
Q 2.822450592097929 1.873e-08 au
  Orbit Determination Parameters
   # obs. used (total)      517  
   data-arc span      7523 days (20.60 yr)  
   first obs. used      1998-06-19  
   last obs. used      2019-01-23  
   planetary ephem.      DE431  
   SB-pert. ephem.      SB431-N16  
   condition code      0  
   norm. resid. RMS      .59612  
   source      ORB  
   producer      Otto Matic  
   solution date      2019-Jul-14 02:39:34  

Additional Information
 Earth MOID = 1.10997 au 
 Jupiter MOID = 2.50814 au 
 T_jup = 3.429 
[ show covariance matrix ]

Ephemeris | Orbit Diagram | Orbital Elements | Mission Design | Physical Parameters | Discovery Circumstances ]

Physical Parameter Table
Parameter Symbol Value Units Sigma Reference Notes
absolute magnitude H 15.8   n/a MPO320503  
diameter diameter 2.205 km 0.277 urn:nasa:pds:neowise_diameters_albedos::2.0[mainbelt] (http://adsabs.harvard.edu/abs/2011ApJ...741...68M)  
geometric albedo albedo 0.209   0.046 urn:nasa:pds:neowise_diameters_albedos::2.0[mainbelt] (http://adsabs.harvard.edu/abs/2011ApJ...741...68M)  

136429 (2005 EU13)          Discovered 2005-Mar-03 by Spacewatch at Kitt Peak
Reference: 20060907/Numbers.arcLast Updated: 2006-09-10

Alternate Designations
 2005 EU13 = 1998 MV44 
Ephemeris | Orbit Diagram | Orbital Elements | Mission Design | Physical Parameters | Discovery Circumstances ]
ABOUT SSD CREDITS/AWARDS PRIVACY/COPYRIGHT GLOSSARY LINKS
FirstGov
(server date/time)  
NASA Home Page
Site Manager:   Ryan S. Park
Webmaster  Alan B. Chamberlin